,,PressureMeas_1m,,PRMeasQMR101_1,,RHStat155_1m_1,,SRMeasQMS101R_1m,,TAStat155_1m_1,,GenWind_1,,GenWind_1,
2019-08-01, 00:00:06,VALID,919.304,VALID,0.0,VALID,96.629,VALID,-0.049,VALID,20.618,VALID,66.0,VALID,0.0,
2019-08-01, 00:01:06,VALID,919.308,VALID,0.0,VALID,97.038,VALID,-0.034,VALID,20.634,VALID,66.0,VALID,0.0,
2019-08-01, 00:02:06,VALID,919.303,VALID,0.0,VALID,97.103,VALID,-0.031,VALID,20.625,VALID,66.0,VALID,0.0,
2019-08-01, 00:03:06,VALID,919.313,VALID,0.0,VALID,97.037,VALID,-0.022,VALID,20.629,VALID,66.0,VALID,0.0,
2019-08-01, 00:04:06,VALID,919.335,VALID,0.0,VALID,97.198,VALID,-0.028,VALID,20.654,VALID,66.0,VALID,0.0,
2019-08-01, 00:05:06,VALID,919.318,VALID,0.0,VALID,97.201,VALID,-0.027,VALID,20.64,VALID,66.0,VALID,0.0,
2019-08-01, 00:06:06,VALID,919.316,VALID,0.0,VALID,97.072,VALID,-0.019,VALID,20.603,VALID,66.0,VALID,0.0,
2019-08-01, 00:07:06,VALID,919.298,VALID,0.0,VALID,96.961,VALID,-0.013,VALID,20.568,VALID,66.0,VALID,0.0,
2019-08-01, 00:08:06,VALID,919.272,VALID,0.0,VALID,96.686,VALID,-0.009,VALID,20.502,VALID,66.0,VALID,0.0,
2019-08-01, 00:09:06,VALID,919.246,VALID,0.0,VALID,96.196,VALID,0.004,VALID,20.434,VALID,66.0,VALID,0.0,
2019-08-01, 00:10:06,VALID,919.239,VALID,0.0,VALID,95.96,VALID,-0.002,VALID,20.372,VALID,66.0,VALID,0.0,
2019-08-01, 00:11:06,VALID,919.237,VALID,0.0,VALID,96.316,VALID,-0.01,VALID,20.378,VALID,66.0,VALID,0.0,
2019-08-01, 00:12:06,VALID,919.231,VALID,0.0,VALID,96.638,VALID,0.01,VALID,20.359,VALID,66.0,VALID,0.0,
2019-08-01, 00:13:06,VALID,919.261,VALID,0.0,VALID,96.457,VALID,0.008,VALID,20.282,VALID,66.0,VALID,0.0,
2019-08-01, 00:14:06,VALID,919.271,VALID,0.0,VALID,96.139,VALID,0.018,VALID,20.2,VALID,66.0,VALID,0.0,
2019-08-01, 00:15:06,VALID,919.294,VALID,0.0,VALID,95.967,VALID,0.003,VALID,20.139,VALID,66.0,VALID,0.0,
2019-08-01, 00:16:06,VALID,919.307,VALID,0.0,VALID,96.06,VALID,0.001,VALID,20.101,VALID,66.0,VALID,0.0,
2019-08-01, 00:17:06,VALID,919.327,VALID,0.0,VALID,96.364,VALID,0.011,VALID,20.084,VALID,66.0,VALID,0.0,
2019-08-01, 00:18:06,VALID,919.327,VALID,0.0,VALID,96.552,VALID,-0.002,VALID,20.072,VALID,66.0,VALID,0.0,
2019-08-01, 00:19:06,VALID,919.337,VALID,0.0,VALID,96.842,VALID,0.029,VALID,20.075,VALID,66.0,VALID,0.0,
2019-08-01, 00:20:06,VALID,919.347,VALID,0.0,VALID,96.941,VALID,0.038,VALID,20.072,VALID,89.0,VALID,0.0,
2019-08-01, 00:21:06,VALID,919.323,VALID,0.0,VALID,97.401,VALID,0.03,VALID,20.103,VALID,160.0,VALID,0.0,
2019-08-01, 00:22:06,VALID,919.318,VALID,0.0,VALID,97.806,VALID,0.044,VALID,20.142,VALID,154.0,VALID,0.0,
2019-08-01, 00:23:06,VALID,919.301,VALID,0.0,VALID,97.945,VALID,0.031,VALID,20.13,VALID,151.0,VALID,0.0,
2019-08-01, 00:24:06,VALID,919.282,VALID,0.0,VALID,98.169,VALID,0.034,VALID,20.152,VALID,151.0,VALID,0.0,
2019-08-01, 00:25:06,VALID,919.256,VALID,0.0,VALID,98.373,VALID,0.046,VALID,20.161,VALID,155.0,VALID,0.0,
2019-08-01, 00:26:07,VALID,919.277,VALID,0.0,VALID,98.517,VALID,0.044,VALID,20.155,VALID,170.0,VALID,0.0,
2019-08-01, 00:27:07,VALID,919.273,VALID,0.0,VALID,98.689,VALID,0.049,VALID,20.186,VALID,170.0,VALID,0.0,
2019-08-01, 00:28:07,VALID,919.25,VALID,0.0,VALID,98.846,VALID,0.061,VALID,20.23,VALID,170.0,VALID,0.0,
2019-08-01, 00:29:07,VALID,919.252,VALID,0.0,VALID,98.916,VALID,0.03,VALID,20.211,VALID,169.0,VALID,0.0,
2019-08-01, 00:30:07,VALID,919.248,VALID,0.0,VALID,98.938,VALID,0.059,VALID,20.178,VALID,169.0,VALID,0.0,
2019-08-01, 00:31:07,VALID,919.232,VALID,0.0,VALID,98.94,VALID,0.033,VALID,20.139,VALID,169.0,VALID,0.0,
2019-08-01, 00:32:07,VALID,919.211,VALID,0.0,VALID,98.912,VALID,0.037,VALID,20.075,VALID,169.0,VALID,0.0,
2019-08-01, 00:33:07,VALID,919.213,VALID,0.0,VALID,98.905,VALID,0.023,VALID,20.045,VALID,166.0,VALID,0.0,
2019-08-01, 00:34:07,VALID,919.211,VALID,0.0,VALID,98.835,VALID,-0.019,VALID,19.968,VALID,166.0,VALID,0.0,
2019-08-01, 00:35:07,VALID,919.2,VALID,0.0,VALID,98.793,VALID,0.009,VALID,19.954,VALID,166.0,VALID,0.0,
2019-08-01, 00:36:07,VALID,919.184,VALID,0.0,VALID,98.845,VALID,-0.028,VALID,19.985,VALID,166.0,VALID,0.0,
2019-08-01, 00:37:07,VALID,919.189,VALID,0.0,VALID,98.943,VALID,-0.019,VALID,20.052,VALID,166.0,VALID,0.0,
2019-08-01, 00:38:07,VALID,919.167,VALID,0.0,VALID,99.02,VALID,-0.029,VALID,20.134,VALID,166.0,VALID,0.0,
2019-08-01, 00:39:07,VALID,919.163,VALID,0.0,VALID,99.077,VALID,-0.024,VALID,20.195,VALID,166.0,VALID,0.0,
2019-08-01, 00:40:07,VALID,919.151,VALID,0.0,VALID,99.103,VALID,-0.005,VALID,20.219,VALID,164.0,VALID,0.0,
2019-08-01, 00:41:07,VALID,919.126,VALID,0.0,VALID,99.127,VALID,-0.02,VALID,20.252,VALID,126.0,VALID,0.0,
2019-08-01, 00:42:07,VALID,919.108,VALID,0.0,VALID,99.155,VALID,-0.023,VALID,20.257,VALID,121.0,VALID,0.0,
2019-08-01, 00:43:07,VALID,919.085,VALID,0.0,VALID,99.12,VALID,-0.016,VALID,20.206,VALID,111.0,VALID,0.0,
2019-08-01, 00:44:07,VALID,919.071,VALID,0.0,VALID,99.103,VALID,-0.023,VALID,20.18,VALID,110.0,VALID,0.0,
2019-08-01, 00:45:07,VALID,919.051,VALID,0.0,VALID,99.107,VALID,-0.033,VALID,20.173,VALID,107.0,VALID,0.0,
2019-08-01, 00:46:07,VALID,919.043,VALID,0.0,VALID,99.155,VALID,-0.015,VALID,20.236,VALID,106.0,VALID,0.0,
2019-08-01, 00:47:07,VALID,919.059,VALID,0.0,VALID,99.243,VALID,-0.019,VALID,20.311,VALID,106.0,VALID,0.0,
2019-08-01, 00:48:07,VALID,919.062,VALID,0.0,VALID,99.276,VALID,-0.007,VALID,20.356,VALID,106.0,VALID,0.0,
2019-08-01, 00:49:07,VALID,919.086,VALID,0.0,VALID,99.205,VALID,0.007,VALID,20.337,VALID,106.0,VALID,0.0,
2019-08-01, 00:50:07,VALID,919.11,VALID,0.0,VALID,99.259,VALID,0.003,VALID,20.381,VALID,106.0,VALID,0.0,
2019-08-01, 00:51:07,VALID,919.108,VALID,0.0,VALID,99.262,VALID,-0.0,VALID,20.427,VALID,106.0,VALID,0.0,
2019-08-01, 00:52:07,VALID,919.095,VALID,0.0,VALID,99.269,VALID,-0.005,VALID,20.445,VALID,106.0,VALID,0.0,
2019-08-01, 00:53:07,VALID,919.066,VALID,0.0,VALID,99.27,VALID,-0.01,VALID,20.446,VALID,104.0,VALID,0.0,
2019-08-01, 00:54:07,VALID,919.044,VALID,0.0,VALID,99.261,VALID,0.006,VALID,20.425,VALID,80.0,VALID,0.0,
2019-08-01, 00:55:07,VALID,918.996,VALID,0.0,VALID,99.214,VALID,0.007,VALID,20.384,VALID,66.0,VALID,0.0,
2019-08-01, 00:56:07,VALID,918.979,VALID,0.0,VALID,99.166,VALID,0.005,VALID,20.346,VALID,66.0,VALID,0.0,
2019-08-01, 00:57:07,VALID,918.963,VALID,0.0,VALID,99.145,VALID,0.012,VALID,20.38,VALID,66.0,VALID,0.0,
2019-08-01, 00:58:07,VALID,918.932,VALID,0.0,VALID,99.156,VALID,0.011,VALID,20.406,VALID,66.0,VALID,0.0,
2019-08-01, 00:59:07,VALID,918.926,VALID,0.0,VALID,99.129,VALID,-0.008,VALID,20.413,VALID,66.0,VALID,0.0,
2019-08-01, 01:00:07,VALID,918.896,VALID,0.0,VALID,99.107,VALID,-0.002,VALID,20.388,VALID,66.0,VALID,0.0,
2019-08-01, 01:01:07,VALID,918.88,VALID,0.0,VALID,99.099,VALID,-0.004,VALID,20.379,VALID,66.0,VALID,0.0,
2019-08-01, 01:02:07,VALID,918.869,VALID,0.0,VALID,99.089,VALID,0.001,VALID,20.349,VALID,66.0,VALID,0.0,
2019-08-01, 01:03:07,VALID,918.872,VALID,0.0,VALID,99.082,VALID,-0.014,VALID,20.345,VALID,66.0,VALID,0.0,
2019-08-01, 01:04:07,VALID,918.86,VALID,0.0,VALID,99.103,VALID,-0.014,VALID,20.383,VALID,66.0,VALID,0.0,
2019-08-01, 01:05:07,VALID,918.869,VALID,0.0,VALID,99.108,VALID,0.007,VALID,20.411,VALID,57.0,VALID,0.0,
2019-08-01, 01:06:07,VALID,918.887,VALID,0.0,VALID,99.015,VALID,0.013,VALID,20.332,VALID,54.0,VALID,0.0,
2019-08-01, 01:07:07,VALID,918.891,VALID,0.0,VALID,98.958,VALID,-0.007,VALID,20.317,VALID,54.0,VALID,0.0,
2019-08-01, 01:08:07,VALID,918.863,VALID,0.0,VALID,98.89,VALID,-0.008,VALID,20.297,VALID,54.0,VALID,0.0,
2019-08-01, 01:09:07,VALID,918.87,VALID,0.0,VALID,98.903,VALID,-0.007,VALID,20.337,VALID,64.0,VALID,0.0,
2019-08-01, 01:10:07,VALID,918.873,VALID,0.0,VALID,98.946,VALID,-0.016,VALID,20.379,VALID,81.0,VALID,0.0,
2019-08-01, 01:11:07,VALID,918.888,VALID,0.0,VALID,98.945,VALID,-0.012,VALID,20.353,VALID,96.0,VALID,0.0,
2019-08-01, 01:12:07,VALID,918.891,VALID,0.0,VALID,98.875,VALID,-0.015,VALID,20.278,VALID,98.0,VALID,0.0,
2019-08-01, 01:13:07,VALID,918.906,VALID,0.0,VALID,98.835,VALID,-0.013,VALID,20.23,VALID,93.0,VALID,0.0,
2019-08-01, 01:14:07,VALID,918.925,VALID,0.0,VALID,98.865,VALID,-0.016,VALID,20.201,VALID,85.0,VALID,0.0,
2019-08-01, 01:15:07,VALID,918.941,VALID,0.0,VALID,98.881,VALID,0.003,VALID,20.183,VALID,80.0,VALID,0.0,
2019-08-01, 01:16:07,VALID,918.942,VALID,0.0,VALID,98.88,VALID,0.014,VALID,20.175,VALID,80.0,VALID,0.0,
2019-08-01, 01:17:07,VALID,918.943,VALID,0.0,VALID,98.896,VALID,-0.004,VALID,20.177,VALID,80.0,VALID,0.0,
2019-08-01, 01:18:07,VALID,918.926,VALID,0.0,VALID,98.906,VALID,-0.017,VALID,20.189,VALID,88.0,VALID,0.0,
2019-08-01, 01:19:07,VALID,918.912,VALID,0.0,VALID,98.906,VALID,-0.037,VALID,20.186,VALID,92.0,VALID,0.0,
2019-08-01, 01:20:07,VALID,918.906,VALID,0.0,VALID,98.963,VALID,-0.031,VALID,20.213,VALID,118.0,VALID,0.0,
2019-08-01, 01:21:07,VALID,918.899,VALID,0.0,VALID,99.032,VALID,-0.043,VALID,20.263,VALID,118.0,VALID,0.0,
2019-08-01, 01:22:07,VALID,918.887,VALID,0.0,VALID,99.053,VALID,-0.039,VALID,20.287,VALID,118.0,VALID,0.0,
2019-08-01, 01:23:07,VALID,918.874,VALID,0.0,VALID,99.088,VALID,-0.034,VALID,20.306,VALID,118.0,VALID,0.0,
2019-08-01, 01:24:07,VALID,918.869,VALID,0.0,VALID,99.126,VALID,-0.027,VALID,20.341,VALID,123.0,VALID,0.0,
2019-08-01, 01:25:07,VALID,918.84,VALID,0.0,VALID,99.173,VALID,-0.022,VALID,20.375,VALID,124.0,VALID,0.0,
2019-08-01, 01:26:07,VALID,918.834,VALID,0.0,VALID,99.172,VALID,-0.021,VALID,20.393,VALID,113.0,VALID,0.0,
2019-08-01, 01:27:07,VALID,918.83,VALID,0.0,VALID,99.163,VALID,-0.034,VALID,20.374,VALID,112.0,VALID,0.0,
2019-08-01, 01:28:07,VALID,918.812,VALID,0.0,VALID,99.114,VALID,-0.054,VALID,20.333,VALID,112.0,VALID,0.0,
2019-08-01, 01:29:07,VALID,918.81,VALID,0.0,VALID,99.065,VALID,-0.042,VALID,20.316,VALID,112.0,VALID,0.0,
2019-08-01, 01:30:07,VALID,918.797,VALID,0.0,VALID,99.004,VALID,-0.034,VALID,20.292,VALID,112.0,VALID,0.0,
2019-08-01, 01:31:07,VALID,918.784,VALID,0.0,VALID,98.977,VALID,-0.026,VALID,20.318,VALID,112.0,VALID,0.0,
2019-08-01, 01:32:07,VALID,918.765,VALID,0.0,VALID,99.036,VALID,-0.046,VALID,20.381,VALID,112.0,VALID,0.0,
2019-08-01, 01:33:07,VALID,918.759,VALID,0.0,VALID,99.065,VALID,-0.039,VALID,20.407,VALID,112.0,VALID,0.0,
2019-08-01, 01:34:07,VALID,918.747,VALID,0.0,VALID,99.09,VALID,-0.046,VALID,20.424,VALID,112.0,VALID,0.0,
2019-08-01, 01:35:07,VALID,918.732,VALID,0.0,VALID,99.112,VALID,-0.047,VALID,20.441,VALID,105.0,VALID,0.0,
2019-08-01, 01:36:07,VALID,918.716,VALID,0.0,VALID,99.121,VALID,-0.055,VALID,20.462,VALID,92.0,VALID,0.0,
2019-08-01, 01:37:07,VALID,918.707,VALID,0.0,VALID,99.098,VALID,-0.041,VALID,20.498,VALID,55.0,VALID,0.0,
2019-08-01, 01:38:07,VALID,918.679,VALID,0.0,VALID,99.06,VALID,-0.048,VALID,20.501,VALID,29.0,VALID,0.0,
2019-08-01, 01:39:07,VALID,918.635,VALID,0.0,VALID,99.011,VALID,-0.055,VALID,20.466,VALID,35.0,VALID,0.0,
2019-08-01, 01:40:07,VALID,918.613,VALID,0.0,VALID,98.962,VALID,-0.063,VALID,20.415,VALID,33.0,VALID,0.0,
2019-08-01, 01:41:07,VALID,918.585,VALID,0.0,VALID,98.893,VALID,-0.048,VALID,20.353,VALID,41.0,VALID,0.0,
2019-08-01, 01:42:07,VALID,918.567,VALID,0.0,VALID,98.93,VALID,-0.051,VALID,20.356,VALID,50.0,VALID,0.0,
2019-08-01, 01:43:07,VALID,918.544,VALID,0.0,VALID,98.934,VALID,-0.039,VALID,20.359,VALID,77.0,VALID,0.0,
2019-08-01, 01:44:07,VALID,918.516,VALID,0.0,VALID,98.922,VALID,-0.055,VALID,20.335,VALID,85.0,VALID,0.0,
2019-08-01, 01:45:07,VALID,918.528,VALID,0.0,VALID,98.906,VALID,-0.073,VALID,20.312,VALID,85.0,VALID,0.0,
2019-08-01, 01:46:07,VALID,918.471,VALID,0.0,VALID,98.908,VALID,-0.048,VALID,20.299,VALID,83.0,VALID,0.0,
2019-08-01, 01:47:07,VALID,918.441,VALID,0.0,VALID,98.912,VALID,-0.052,VALID,20.303,VALID,68.0,VALID,0.0,
2019-08-01, 01:48:07,VALID,918.4,VALID,0.0,VALID,98.9,VALID,-0.037,VALID,20.274,VALID,67.0,VALID,0.0,
2019-08-01, 01:49:07,VALID,918.398,VALID,0.0,VALID,98.893,VALID,-0.029,VALID,20.258,VALID,72.0,VALID,0.0,
2019-08-01, 01:50:07,VALID,918.402,VALID,0.0,VALID,98.923,VALID,-0.009,VALID,20.266,VALID,76.0,VALID,0.0,
2019-08-01, 01:51:07,VALID,918.429,VALID,0.0,VALID,98.935,VALID,-0.002,VALID,20.269,VALID,77.0,VALID,0.0,
2019-08-01, 01:52:07,VALID,918.422,VALID,0.0,VALID,98.963,VALID,-0.018,VALID,20.259,VALID,87.0,VALID,0.0,
2019-08-01, 01:53:07,VALID,918.469,VALID,0.0,VALID,98.936,VALID,-0.024,VALID,20.246,VALID,74.0,VALID,0.0,
2019-08-01, 01:54:07,VALID,918.445,VALID,0.0,VALID,98.947,VALID,-0.024,VALID,20.244,VALID,70.0,VALID,0.0,
2019-08-01, 01:55:07,VALID,918.45,VALID,0.0,VALID,98.928,VALID,-0.011,VALID,20.241,VALID,69.0,VALID,0.0,
2019-08-01, 01:56:07,VALID,918.407,VALID,0.0,VALID,98.864,VALID,0.001,VALID,20.231,VALID,69.0,VALID,0.0,
2019-08-01, 01:57:07,VALID,918.38,VALID,0.0,VALID,98.837,VALID,-0.024,VALID,20.223,VALID,65.0,VALID,0.0,
2019-08-01, 01:58:07,VALID,918.368,VALID,0.0,VALID,98.836,VALID,-0.019,VALID,20.219,VALID,62.0,VALID,0.0,
2019-08-01, 01:59:07,VALID,918.381,VALID,0.0,VALID,98.833,VALID,-0.017,VALID,20.205,VALID,73.0,VALID,0.0,
2019-08-01, 02:00:07,VALID,918.409,VALID,0.0,VALID,98.781,VALID,-0.007,VALID,20.177,VALID,109.0,VALID,0.0,
2019-08-01, 02:01:07,VALID,918.439,VALID,0.0,VALID,98.773,VALID,-0.012,VALID,20.162,VALID,136.0,VALID,0.0,
2019-08-01, 02:02:07,VALID,918.472,VALID,0.0,VALID,98.766,VALID,-0.009,VALID,20.161,VALID,175.0,VALID,0.0,
2019-08-01, 02:03:07,VALID,918.51,VALID,0.0,VALID,98.749,VALID,0.01,VALID,20.155,VALID,165.0,VALID,0.0,
2019-08-01, 02:04:07,VALID,918.509,VALID,0.0,VALID,98.787,VALID,0.001,VALID,20.134,VALID,166.0,VALID,0.0,
2019-08-01, 02:05:07,VALID,918.532,VALID,0.0,VALID,98.827,VALID,0.004,VALID,20.137,VALID,131.0,VALID,0.0,
2019-08-01, 02:06:07,VALID,918.517,VALID,0.0,VALID,98.873,VALID,0.001,VALID,20.129,VALID,147.0,VALID,0.0,
2019-08-01, 02:07:07,VALID,918.514,VALID,0.0,VALID,98.917,VALID,0.008,VALID,20.161,VALID,160.0,VALID,0.0,
2019-08-01, 02:08:07,VALID,918.523,VALID,0.0,VALID,98.9,VALID,-0.001,VALID,20.159,VALID,101.0,VALID,0.0,
2019-08-01, 02:09:07,VALID,918.496,VALID,0.0,VALID,98.884,VALID,-0.006,VALID,20.157,VALID,88.0,VALID,0.0,
2019-08-01, 02:10:07,VALID,918.487,VALID,0.0,VALID,98.869,VALID,-0.002,VALID,20.163,VALID,104.0,VALID,0.0,
2019-08-01, 02:11:07,VALID,918.488,VALID,0.0,VALID,98.885,VALID,-0.011,VALID,20.201,VALID,138.0,VALID,0.0,
2019-08-01, 02:12:07,VALID,918.519,VALID,0.0,VALID,98.884,VALID,-0.005,VALID,20.225,VALID,162.0,VALID,0.0,
2019-08-01, 02:13:07,VALID,918.495,VALID,0.0,VALID,98.825,VALID,0.003,VALID,20.221,VALID,152.0,VALID,0.0,
2019-08-01, 02:14:07,VALID,918.501,VALID,0.0,VALID,98.769,VALID,0.0,VALID,20.211,VALID,157.0,VALID,0.0,
2019-08-01, 02:15:07,VALID,918.489,VALID,0.0,VALID,98.751,VALID,-0.011,VALID,20.191,VALID,157.0,VALID,0.0,
2019-08-01, 02:16:07,VALID,918.456,VALID,0.0,VALID,98.735,VALID,-0.002,VALID,20.175,VALID,157.0,VALID,0.0,
2019-08-01, 02:17:07,VALID,918.408,VALID,0.0,VALID,98.776,VALID,-0.006,VALID,20.186,VALID,157.0,VALID,0.0,
2019-08-01, 02:18:07,VALID,918.405,VALID,0.0,VALID,98.797,VALID,-0.021,VALID,20.198,VALID,157.0,VALID,0.0,
2019-08-01, 02:19:07,VALID,918.39,VALID,0.0,VALID,98.82,VALID,-0.008,VALID,20.208,VALID,155.0,VALID,0.0,
2019-08-01, 02:20:07,VALID,918.399,VALID,0.0,VALID,98.776,VALID,-0.008,VALID,20.2,VALID,154.0,VALID,0.0,
2019-08-01, 02:21:07,VALID,918.38,VALID,0.0,VALID,98.765,VALID,-0.022,VALID,20.213,VALID,154.0,VALID,0.0,
2019-08-01, 02:22:07,VALID,918.364,VALID,0.0,VALID,98.728,VALID,-0.018,VALID,20.219,VALID,130.0,VALID,0.0,
2019-08-01, 02:23:07,VALID,918.334,VALID,0.0,VALID,98.631,VALID,-0.004,VALID,20.184,VALID,117.0,VALID,0.0,
2019-08-01, 02:24:07,VALID,918.326,VALID,0.0,VALID,98.575,VALID,-0.016,VALID,20.147,VALID,110.0,VALID,0.0,
2019-08-01, 02:25:07,VALID,918.326,VALID,0.0,VALID,98.516,VALID,-0.024,VALID,20.102,VALID,109.0,VALID,0.0,
2019-08-01, 02:26:07,VALID,918.315,VALID,0.0,VALID,98.483,VALID,-0.014,VALID,20.082,VALID,108.0,VALID,0.0,
2019-08-01, 02:27:07,VALID,918.322,VALID,0.0,VALID,98.451,VALID,-0.013,VALID,20.054,VALID,99.0,VALID,0.0,
2019-08-01, 02:28:07,VALID,918.343,VALID,0.0,VALID,98.252,VALID,-0.025,VALID,19.966,VALID,77.0,VALID,0.0,
2019-08-01, 02:29:07,VALID,918.322,VALID,0.0,VALID,98.239,VALID,-0.005,VALID,19.952,VALID,48.0,VALID,0.0,
2019-08-01, 02:30:07,VALID,918.304,VALID,0.0,VALID,98.402,VALID,-0.026,VALID,19.969,VALID,45.0,VALID,0.0,
2019-08-01, 02:31:07,VALID,918.297,VALID,0.0,VALID,98.449,VALID,-0.022,VALID,19.945,VALID,45.0,VALID,0.0,
2019-08-01, 02:32:07,VALID,918.283,VALID,0.0,VALID,98.461,VALID,-0.002,VALID,19.907,VALID,45.0,VALID,0.0,
2019-08-01, 02:33:07,VALID,918.291,VALID,0.0,VALID,98.502,VALID,-0.005,VALID,19.897,VALID,61.0,VALID,0.0,
2019-08-01, 02:34:07,VALID,918.262,VALID,0.0,VALID,98.526,VALID,-0.014,VALID,19.878,VALID,68.0,VALID,0.0,
2019-08-01, 02:35:07,VALID,918.271,VALID,0.0,VALID,98.535,VALID,-0.004,VALID,19.85,VALID,86.0,VALID,0.0,
2019-08-01, 02:36:06,VALID,918.251,VALID,0.0,VALID,98.602,VALID,0.001,VALID,19.841,VALID,97.0,VALID,0.0,
2019-08-01, 02:37:06,VALID,918.245,VALID,0.0,VALID,98.656,VALID,0.004,VALID,19.829,VALID,98.0,VALID,0.0,
2019-08-01, 02:38:06,VALID,918.229,VALID,0.0,VALID,98.703,VALID,0.018,VALID,19.789,VALID,104.0,VALID,0.0,
2019-08-01, 02:39:06,VALID,918.205,VALID,0.0,VALID,98.73,VALID,-0.006,VALID,19.759,VALID,96.0,VALID,0.0,
2019-08-01, 02:40:06,VALID,918.177,VALID,0.0,VALID,98.771,VALID,-0.011,VALID,19.712,VALID,94.0,VALID,0.0,
2019-08-01, 02:41:06,VALID,918.174,VALID,0.0,VALID,98.799,VALID,-0.006,VALID,19.675,VALID,92.0,VALID,0.0,
2019-08-01, 02:42:06,VALID,918.176,VALID,0.0,VALID,98.883,VALID,-0.009,VALID,19.651,VALID,89.0,VALID,0.0,
2019-08-01, 02:43:06,VALID,918.168,VALID,0.0,VALID,98.922,VALID,-0.01,VALID,19.63,VALID,103.0,VALID,0.0,
2019-08-01, 02:44:06,VALID,918.18,VALID,0.0,VALID,98.968,VALID,-0.013,VALID,19.613,VALID,106.0,VALID,0.0,
2019-08-01, 02:45:06,VALID,918.21,VALID,0.0,VALID,99.031,VALID,-0.012,VALID,19.608,VALID,108.0,VALID,0.0,
2019-08-01, 02:46:06,VALID,918.221,VALID,0.0,VALID,99.07,VALID,-0.01,VALID,19.608,VALID,104.0,VALID,0.0,
2019-08-01, 02:47:06,VALID,918.194,VALID,0.0,VALID,99.124,VALID,0.018,VALID,19.616,VALID,101.0,VALID,0.0,
2019-08-01, 02:48:06,VALID,918.166,VALID,0.0,VALID,99.156,VALID,-0.013,VALID,19.634,VALID,85.0,VALID,0.0,
2019-08-01, 02:49:06,VALID,918.145,VALID,0.0,VALID,99.195,VALID,-0.011,VALID,19.645,VALID,61.0,VALID,0.0,
2019-08-01, 02:50:06,VALID,918.145,VALID,0.0,VALID,99.207,VALID,0.002,VALID,19.633,VALID,42.0,VALID,0.0,
2019-08-01, 02:51:06,VALID,918.129,VALID,0.0,VALID,99.2,VALID,0.002,VALID,19.619,VALID,43.0,VALID,0.0,
2019-08-01, 02:52:06,VALID,918.126,VALID,0.0,VALID,99.194,VALID,0.022,VALID,19.611,VALID,44.0,VALID,0.0,
2019-08-01, 02:53:06,VALID,918.13,VALID,0.0,VALID,99.207,VALID,0.006,VALID,19.603,VALID,49.0,VALID,0.0,
2019-08-01, 02:54:06,VALID,918.136,VALID,0.0,VALID,99.191,VALID,0.016,VALID,19.595,VALID,78.0,VALID,0.0,
2019-08-01, 02:55:06,VALID,918.137,VALID,0.0,VALID,99.171,VALID,0.021,VALID,19.575,VALID,103.0,VALID,0.0,
2019-08-01, 02:56:06,VALID,918.126,VALID,0.0,VALID,99.179,VALID,0.014,VALID,19.587,VALID,124.0,VALID,0.0,
2019-08-01, 02:57:06,VALID,918.119,VALID,0.0,VALID,99.215,VALID,0.019,VALID,19.631,VALID,103.0,VALID,0.0,
2019-08-01, 02:58:06,VALID,918.093,VALID,0.0,VALID,99.216,VALID,0.026,VALID,19.655,VALID,106.0,VALID,0.0,
2019-08-01, 02:59:06,VALID,918.07,VALID,0.0,VALID,99.178,VALID,0.03,VALID,19.651,VALID,126.0,VALID,0.0,
2019-08-01, 03:00:06,VALID,918.043,VALID,0.0,VALID,99.171,VALID,0.023,VALID,19.654,VALID,128.0,VALID,0.0,
2019-08-01, 03:01:06,VALID,918.039,VALID,0.0,VALID,99.147,VALID,0.024,VALID,19.648,VALID,120.0,VALID,0.0,
2019-08-01, 03:02:06,VALID,918.021,VALID,0.0,VALID,99.138,VALID,0.015,VALID,19.616,VALID,105.0,VALID,0.0,
2019-08-01, 03:03:06,VALID,918.005,VALID,0.0,VALID,99.1,VALID,0.03,VALID,19.609,VALID,94.0,VALID,0.0,
2019-08-01, 03:04:06,VALID,917.989,VALID,0.0,VALID,99.095,VALID,0.029,VALID,19.619,VALID,94.0,VALID,0.0,
2019-08-01, 03:05:06,VALID,917.973,VALID,0.0,VALID,99.093,VALID,0.0,VALID,19.635,VALID,98.0,VALID,0.0,
2019-08-01, 03:06:06,VALID,917.953,VALID,0.0,VALID,99.099,VALID,0.011,VALID,19.645,VALID,102.0,VALID,0.0,
2019-08-01, 03:07:06,VALID,917.935,VALID,0.0,VALID,99.075,VALID,0.025,VALID,19.647,VALID,111.0,VALID,0.0,
2019-08-01, 03:08:06,VALID,917.923,VALID,0.0,VALID,99.09,VALID,0.019,VALID,19.67,VALID,135.0,VALID,0.0,
2019-08-01, 03:09:06,VALID,917.93,VALID,0.0,VALID,99.137,VALID,0.031,VALID,19.71,VALID,142.0,VALID,0.0,
2019-08-01, 03:10:06,VALID,917.931,VALID,0.0,VALID,99.153,VALID,0.021,VALID,19.748,VALID,103.0,VALID,0.0,
2019-08-01, 03:11:06,VALID,917.954,VALID,0.0,VALID,99.118,VALID,0.034,VALID,19.782,VALID,85.0,VALID,0.0,
2019-08-01, 03:12:06,VALID,917.951,VALID,0.0,VALID,99.085,VALID,0.031,VALID,19.783,VALID,115.0,VALID,0.0,
2019-08-01, 03:13:06,VALID,917.934,VALID,0.0,VALID,99.038,VALID,0.022,VALID,19.797,VALID,141.0,VALID,0.0,
2019-08-01, 03:14:06,VALID,917.914,VALID,0.0,VALID,99.002,VALID,0.02,VALID,19.804,VALID,141.0,VALID,0.0,
2019-08-01, 03:15:06,VALID,917.908,VALID,0.0,VALID,98.927,VALID,0.015,VALID,19.801,VALID,140.0,VALID,0.0,
2019-08-01, 03:16:06,VALID,917.902,VALID,0.0,VALID,98.888,VALID,0.008,VALID,19.787,VALID,129.0,VALID,0.0,
2019-08-01, 03:17:06,VALID,917.889,VALID,0.0,VALID,98.839,VALID,0.018,VALID,19.771,VALID,149.0,VALID,0.0,
2019-08-01, 03:18:06,VALID,917.909,VALID,0.0,VALID,98.86,VALID,0.007,VALID,19.795,VALID,133.0,VALID,0.0,
2019-08-01, 03:19:06,VALID,917.926,VALID,0.0,VALID,98.84,VALID,-0.027,VALID,19.803,VALID,122.0,VALID,0.0,
2019-08-01, 03:20:06,VALID,917.939,VALID,0.0,VALID,98.769,VALID,-0.029,VALID,19.775,VALID,122.0,VALID,0.0,
2019-08-01, 03:21:06,VALID,917.929,VALID,0.0,VALID,98.745,VALID,-0.034,VALID,19.774,VALID,120.0,VALID,0.0,
2019-08-01, 03:22:06,VALID,917.93,VALID,0.0,VALID,98.766,VALID,-0.031,VALID,19.788,VALID,94.0,VALID,0.0,
2019-08-01, 03:23:06,VALID,917.909,VALID,0.0,VALID,98.686,VALID,-0.026,VALID,19.771,VALID,85.0,VALID,0.0,
2019-08-01, 03:24:06,VALID,917.883,VALID,0.0,VALID,98.586,VALID,-0.035,VALID,19.744,VALID,85.0,VALID,0.0,
2019-08-01, 03:25:06,VALID,917.852,VALID,0.0,VALID,98.52,VALID,-0.031,VALID,19.724,VALID,113.0,VALID,0.0,
2019-08-01, 03:26:06,VALID,917.87,VALID,0.0,VALID,98.534,VALID,-0.047,VALID,19.716,VALID,125.0,VALID,0.0,
2019-08-01, 03:27:06,VALID,917.867,VALID,0.0,VALID,98.589,VALID,-0.021,VALID,19.722,VALID,129.0,VALID,0.0,
2019-08-01, 03:28:06,VALID,917.878,VALID,0.0,VALID,98.594,VALID,-0.017,VALID,19.736,VALID,122.0,VALID,0.0,
2019-08-01, 03:29:06,VALID,917.898,VALID,0.0,VALID,98.545,VALID,-0.034,VALID,19.742,VALID,123.0,VALID,0.0,
2019-08-01, 03:30:06,VALID,917.906,VALID,0.0,VALID,98.455,VALID,-0.046,VALID,19.74,VALID,124.0,VALID,0.0,
2019-08-01, 03:31:06,VALID,917.903,VALID,0.0,VALID,98.397,VALID,-0.049,VALID,19.734,VALID,121.0,VALID,0.0,
2019-08-01, 03:32:06,VALID,917.927,VALID,0.0,VALID,98.338,VALID,-0.028,VALID,19.73,VALID,142.0,VALID,0.0,
2019-08-01, 03:33:06,VALID,917.897,VALID,0.0,VALID,98.234,VALID,-0.005,VALID,19.721,VALID,156.0,VALID,0.0,
2019-08-01, 03:34:06,VALID,917.872,VALID,0.0,VALID,98.158,VALID,-0.008,VALID,19.71,VALID,120.0,VALID,0.0,
2019-08-01, 03:35:06,VALID,917.819,VALID,0.0,VALID,98.102,VALID,-0.006,VALID,19.704,VALID,120.0,VALID,0.0,
2019-08-01, 03:36:06,VALID,917.783,VALID,0.0,VALID,97.944,VALID,-0.012,VALID,19.664,VALID,110.0,VALID,0.0,
2019-08-01, 03:37:06,VALID,917.767,VALID,0.0,VALID,97.839,VALID,0.001,VALID,19.623,VALID,97.0,VALID,0.0,
2019-08-01, 03:38:06,VALID,917.759,VALID,0.0,VALID,97.784,VALID,-0.005,VALID,19.582,VALID,106.0,VALID,0.0,
2019-08-01, 03:39:06,VALID,917.793,VALID,0.0,VALID,97.873,VALID,-0.015,VALID,19.566,VALID,116.0,VALID,0.0,
2019-08-01, 03:40:06,VALID,917.81,VALID,0.0,VALID,97.955,VALID,-0.004,VALID,19.535,VALID,118.0,VALID,0.0,
2019-08-01, 03:41:06,VALID,917.829,VALID,0.0,VALID,98.099,VALID,-0.008,VALID,19.52,VALID,99.0,VALID,0.0,
2019-08-01, 03:42:06,VALID,917.832,VALID,0.0,VALID,98.106,VALID,0.014,VALID,19.496,VALID,81.0,VALID,0.0,